| time (UTC) | temp F | wind direction | speed MPH | gust MPH | rain 1hr in | rain 24hr in | rain mn in | humidity % | barometer mb |
| 20260503184605 | 37 | 278 | 3.0 | 7.0 | 0.00 | 0.00 | 0.00 | 65 | 1008.0 |
| 20260503184039 | 38 | 274 | 2.0 | 6.0 | 0.00 | 0.00 | 0.00 | 65 | 1008.0 |
| 20260503183533 | 38 | 266 | 3.0 | 6.0 | 0.00 | 0.00 | 0.00 | 64 | 1008.0 |
| 20260503183046 | 38 | 256 | 2.0 | 7.0 | 0.00 | 0.00 | 0.00 | 63 | 1007.9 |
| 20260503182532 | 39 | 276 | 2.0 | 7.0 | 0.00 | 0.00 | 0.00 | 60 | 1008.0 |
| 20260503182033 | 39 | 268 | 3.0 | 7.0 | 0.00 | 0.00 | 0.00 | 57 | 1007.9 |
| 20260503181551 | 40 | 287 | 0.0 | 3.0 | 0.00 | 0.00 | 0.00 | 56 | 1007.9 |
| 20260503181033 | 41 | 292 | 0.0 | 4.0 | 0.00 | 0.00 | 0.00 | 54 | 1007.8 |
| 20260503180533 | 42 | 0 | 1.0 | 4.0 | 0.00 | 0.00 | 0.00 | 52 | 1007.7 |
| 20260503180049 | 42 | 288 | 1.0 | 4.0 | 0.00 | 0.00 | 0.00 | 51 | 1007.7 |
| 20260503175534 | 43 | 280 | 1.0 | 4.0 | 0.00 | 0.00 | 0.00 | 48 | 1007.7 |
| 20260503175032 | 43 | 297 | 0.0 | 5.0 | 0.00 | 0.00 | 0.00 | 47 | 1007.7 |
| 20260503174601 | 44 | 290 | 1.0 | 6.0 | 0.00 | 0.00 | 0.00 | 45 | 1007.7 |
| 20260503174032 | 44 | 305 | 1.0 | 6.0 | 0.00 | 0.00 | 0.00 | 47 | 1007.7 |
| 20260503173532 | 44 | 265 | 1.0 | 6.0 | 0.00 | 0.00 | 0.00 | 44 | 1007.6 |
| 20260503173051 | 45 | 0 | 1.0 | 6.0 | 0.00 | 0.00 | 0.00 | 41 | 1007.5 |
| 20260503172533 | 45 | 294 | 0.0 | 7.0 | 0.00 | 0.00 | 0.00 | 40 | 1007.5 |
| 20260503172034 | 46 | 0 | 1.0 | 11.0 | 0.00 | 0.00 | 0.00 | 39 | 1007.5 |
| 20260503171542 | 46 | 271 | 6.0 | 11.0 | 0.00 | 0.00 | 0.00 | 37 | 1007.5 |
| 20260503171034 | 47 | 271 | 2.0 | 7.0 | 0.00 | 0.00 | 0.00 | 37 | 1007.4 |
| 20260503170530 | 47 | 340 | 2.0 | 7.0 | 0.00 | 0.00 | 0.00 | 36 | 1007.5 |
| 20260503150535 | 50 | 296 | 7.0 | 13.0 | 0.00 | 0.00 | 0.00 | 38 | 1007.9 |
| 20260503131030 | 52 | 265 | 8.0 | 16.0 | 0.00 | 0.00 | 0.00 | 35 | 1008.1 |
| 20260503130533 | 52 | 4 | 5.0 | 11.0 | 0.00 | 0.00 | 0.00 | 34 | 1008.1 |
| 20260503110535 | 51 | 295 | 11.0 | 16.0 | 0.00 | 0.00 | 0.00 | 38 | 1008.2 |
| 20260503081554 | 48 | 255 | 8.0 | 14.0 | 0.00 | 0.00 | 0.00 | 53 | 1008.3 |
| 20260503081031 | 47 | 272 | 7.0 | 13.0 | 0.00 | 0.00 | 0.00 | 53 | 1008.3 |
| 20260503080530 | 46 | 263 | 8.0 | 13.0 | 0.00 | 0.00 | 0.00 | 52 | 1008.2 |
| 20260503072532 | 46 | 303 | 7.0 | 13.0 | 0.00 | 0.00 | 0.00 | 59 | 1008.3 |
| 20260503072034 | 46 | 277 | 7.0 | 13.0 | 0.00 | 0.00 | 0.00 | 56 | 1008.2 |
| 20260503071603 | 46 | 201 | 5.0 | 10.0 | 0.00 | 0.00 | 0.00 | 57 | 1008.1 |
| 20260503071038 | 45 | 290 | 3.0 | 13.0 | 0.00 | 0.00 | 0.00 | 58 | 1008.1 |
| 20260503070535 | 45 | 294 | 5.0 | 13.0 | 0.00 | 0.00 | 0.00 | 56 | 1008.1 |
| 20260503055036 | 43 | 318 | 3.0 | 9.0 | 0.00 | 0.00 | 0.00 | 70 | 1007.8 |
| 20260503054554 | 43 | 315 | 3.0 | 9.0 | 0.00 | 0.00 | 0.00 | 73 | 1007.7 |
| 20260503054034 | 43 | 324 | 4.0 | 9.0 | 0.00 | 0.00 | 0.00 | 73 | 1007.7 |
| 20260503053534 | 43 | 296 | 2.0 | 6.0 | 0.00 | 0.00 | 0.00 | 80 | 1007.6 |
| 20260503053041 | 42 | 329 | 2.0 | 6.0 | 0.00 | 0.00 | 0.00 | 81 | 1007.5 |
| 20260503052533 | 41 | 282 | 2.0 | 6.0 | 0.00 | 0.00 | 0.00 | 84 | 1007.5 |
| 20260503052034 | 41 | 317 | 1.0 | 6.0 | 0.00 | 0.00 | 0.00 | 83 | 1007.4 |
| 20260503051551 | 41 | 293 | 2.0 | 6.0 | 0.00 | 0.00 | 0.00 | 82 | 1007.4 |
| 20260503051037 | 41 | 332 | 1.0 | 4.0 | 0.00 | 0.00 | 0.00 | 84 | 1007.4 |
| 20260503050534 | 41 | 296 | 2.0 | 3.0 | 0.00 | 0.00 | 0.00 | 84 | 1007.3 |
| 20260503050040 | 41 | 265 | 1.0 | 3.0 | 0.00 | 0.00 | 0.00 | 84 | 1007.4 |
| 20260503045534 | 41 | 352 | 0.0 | 3.0 | 0.00 | 0.00 | 0.00 | 86 | 1007.3 |
| 20260503045035 | 41 | 0 | 1.0 | 3.0 | 0.00 | 0.00 | 0.00 | 87 | 1007.4 |
| 20260503044544 | 40 | 305 | 0.0 | 2.0 | 0.00 | 0.00 | 0.00 | 87 | 1007.4 |
| 20260503044034 | 40 | 302 | 0.0 | 2.0 | 0.00 | 0.00 | 0.00 | 86 | 1007.3 |
| 20260503043534 | 40 | 0 | 1.0 | 2.0 | 0.00 | 0.00 | 0.00 | 86 | 1007.4 |
| 20260503043044 | 40 | 14 | 0.0 | 2.0 | 0.00 | 0.00 | 0.00 | 87 | 1007.5 |
| 20260503042532 | 40 | 0 | 0.0 | 1.0 | 0.00 | 0.00 | 0.00 | 87 | 1007.3 |
| 20260503042032 | 40 | 0 | 0.0 | 1.0 | 0.00 | 0.00 | 0.00 | 88 | 1007.3 |
| 20260503041543 | 40 | 0 | 0.0 | 2.0 | 0.00 | 0.00 | 0.00 | 87 | 1007.2 |
| 20260503041030 | 40 | 14 | 0.0 | 3.0 | 0.00 | 0.00 | 0.00 | 88 | 1007.3 |
| 20260503040532 | 40 | 61 | 0.0 | 4.0 | 0.00 | 0.00 | 0.00 | 88 | 1007.3 |
| 20260503040044 | 40 | 44 | 1.0 | 4.0 | 0.00 | 0.00 | 0.00 | 87 | 1007.3 |
| 20260503035529 | 40 | 55 | 1.0 | 8.0 | 0.00 | 0.00 | 0.00 | 88 | 1007.3 |
| 20260503035033 | 40 | 71 | 3.0 | 8.0 | 0.00 | 0.00 | 0.00 | 88 | 1007.1 |
| 20260503034551 | 40 | 4 | 3.0 | 8.0 | 0.00 | 0.00 | 0.00 | 88 | 1007.3 |
| 20260503034035 | 40 | 340 | 3.0 | 8.0 | 0.00 | 0.00 | 0.00 | 87 | 1007.3 |
| 20260503033533 | 40 | 307 | 4.0 | 8.0 | 0.00 | 0.00 | 0.00 | 87 | 1007.2 |
| 20260503033050 | 40 | 330 | 1.0 | 4.0 | 0.00 | 0.00 | 0.00 | 88 | 1007.1 |
| 20260503032533 | 40 | 316 | 0.0 | 3.0 | 0.00 | 0.00 | 0.00 | 88 | 1007.2 |
| 20260503032032 | 40 | 0 | 0.0 | 4.0 | 0.00 | 0.00 | 0.00 | 88 | 1007.1 |
| 20260503031541 | 41 | 316 | 0.0 | 4.0 | 0.00 | 0.00 | 0.00 | 88 | 1007.2 |
| 20260503031032 | 41 | 0 | 1.0 | 4.0 | 0.00 | 0.00 | 0.00 | 87 | 1007.2 |
| 20260503030529 | 41 | 353 | 1.0 | 3.0 | 0.00 | 0.00 | 0.00 | 87 | 1007.0 |
| 20260503030043 | 41 | 4 | 0.0 | 4.0 | 0.00 | 0.00 | 0.00 | 87 | 1006.9 |
| 20260503025530 | 41 | 9 | 1.0 | 6.0 | 0.00 | 0.00 | 0.00 | 87 | 1007.0 |
| 20260503025031 | 41 | 334 | 2.0 | 6.0 | 0.00 | 0.00 | 0.00 | 87 | 1006.9 |
| 20260503024547 | 41 | 1 | 2.0 | 6.0 | 0.00 | 0.00 | 0.00 | 87 | 1006.8 |
| 20260503024033 | 41 | 28 | 2.0 | 6.0 | 0.00 | 0.00 | 0.00 | 87 | 1006.8 |
| 20260503023532 | 41 | 14 | 1.0 | 5.0 | 0.00 | 0.00 | 0.00 | 87 | 1007.0 |
| 20260503023050 | 42 | 351 | 1.0 | 5.0 | 0.00 | 0.00 | 0.00 | 87 | 1007.0 |
| 20260503022531 | 42 | 9 | 2.0 | 6.0 | 0.00 | 0.00 | 0.00 | 87 | 1007.1 |
| 20260503022033 | 42 | 343 | 2.0 | 8.0 | 0.00 | 0.00 | 0.00 | 87 | 1007.1 |
| 20260503021540 | 42 | 20 | 3.0 | 8.0 | 0.00 | 0.00 | 0.00 | 87 | 1006.9 |
| 20260503021031 | 42 | 325 | 3.0 | 6.0 | 0.00 | 0.00 | 0.00 | 87 | 1007.0 |
| 20260503020533 | 42 | 345 | 1.0 | 4.0 | 0.00 | 0.00 | 0.00 | 87 | 1007.1 |
| 20260503020044 | 42 | 19 | 1.0 | 5.0 | 0.00 | 0.00 | 0.00 | 87 | 1007.0 |
| 20260503015534 | 42 | 342 | 2.0 | 5.0 | 0.00 | 0.00 | 0.00 | 87 | 1007.0 |
| 20260503015033 | 42 | 320 | 2.0 | 5.0 | 0.00 | 0.00 | 0.00 | 87 | 1006.8 |
| 20260503014551 | 42 | 9 | 3.0 | 8.0 | 0.00 | 0.00 | 0.00 | 87 | 1006.8 |
| 20260503014030 | 42 | 333 | 1.0 | 8.0 | 0.00 | 0.00 | 0.00 | 87 | 1006.8 |
| 20260503013531 | 42 | 357 | 2.0 | 8.0 | 0.00 | 0.00 | 0.00 | 86 | 1006.8 |
| 20260503013045 | 42 | 18 | 2.0 | 8.0 | 0.00 | 0.00 | 0.00 | 86 | 1006.8 |
| 20260503012533 | 42 | 18 | 2.0 | 9.0 | 0.00 | 0.00 | 0.00 | 86 | 1006.8 |
| 20260503012033 | 42 | 34 | 3.0 | 9.0 | 0.00 | 0.00 | 0.00 | 86 | 1006.7 |
| 20260503011625 | 42 | 9 | 4.0 | 10.0 | 0.00 | 0.00 | 0.00 | 86 | 1006.6 |
| 20260503011035 | 43 | 355 | 3.0 | 11.0 | 0.00 | 0.00 | 0.00 | 86 | 1006.6 |
| 20260503010534 | 43 | 345 | 4.0 | 11.0 | 0.00 | 0.00 | 0.00 | 85 | 1006.6 |
| 20260503010047 | 43 | 9 | 2.0 | 9.0 | 0.00 | 0.00 | 0.00 | 85 | 1006.6 |
| 20260503005534 | 43 | 351 | 4.0 | 10.0 | 0.00 | 0.00 | 0.00 | 84 | 1006.5 |
| 20260503005030 | 43 | 341 | 4.0 | 13.0 | 0.00 | 0.00 | 0.00 | 84 | 1006.6 |
| 20260503004541 | 44 | 318 | 4.0 | 13.0 | 0.00 | 0.00 | 0.00 | 83 | 1006.6 |
| 20260503004030 | 44 | 14 | 7.0 | 13.0 | 0.00 | 0.00 | 0.00 | 82 | 1006.5 |
| 20260503003530 | 44 | 28 | 6.0 | 11.0 | 0.00 | 0.00 | 0.00 | 80 | 1006.5 |
| 20260503003043 | 44 | 344 | 2.0 | 11.0 | 0.00 | 0.00 | 0.00 | 79 | 1006.4 |
| 20260503002532 | 44 | 355 | 3.0 | 15.0 | 0.00 | 0.00 | 0.00 | 78 | 1006.5 |
| 20260503002035 | 45 | 346 | 8.0 | 15.0 | 0.00 | 0.00 | 0.00 | 77 | 1006.5 |
| 20260503001556 | 45 | 25 | 6.0 | 13.0 | 0.00 | 0.00 | 0.00 | 78 | 1006.4 |
| 20260503001034 | 45 | 23 | 6.0 | 13.0 | 0.00 | 0.00 | 0.00 | 78 | 1006.4 |
| 20260503000533 | 45 | 31 | 5.0 | 11.0 | 0.00 | 0.00 | 0.00 | 78 | 1006.3 |
| 20260503000056 | 45 | 353 | 3.0 | 9.0 | 0.00 | 0.00 | 0.00 | 78 | 1006.3 |
| 20260502235533 | 45 | 345 | 2.0 | 7.0 | 0.00 | 0.00 | 0.00 | 78 | 1006.2 |
| 20260502235030 | 45 | 340 | 2.0 | 8.0 | 0.00 | 0.00 | 0.00 | 78 | 1006.2 |
| 20260502234606 | 45 | 0 | 2.0 | 8.0 | 0.00 | 0.00 | 0.00 | 78 | 1006.2 |
| 20260502234030 | 45 | 348 | 0.0 | 4.0 | 0.00 | 0.00 | 0.00 | 78 | 1006.2 |
| 20260502233532 | 44 | 340 | 1.0 | 4.0 | 0.00 | 0.00 | 0.00 | 78 | 1006.1 |
| 20260502233043 | 45 | 345 | 0.0 | 4.0 | 0.00 | 0.00 | 0.00 | 78 | 1006.1 |
| 20260502232533 | 45 | 354 | 1.0 | 3.0 | 0.00 | 0.00 | 0.00 | 78 | 1006.1 |
| 20260502232036 | 45 | 0 | 0.0 | 2.0 | 0.00 | 0.00 | 0.00 | 78 | 1006.2 |
| 20260502231541 | 45 | 0 | 0.0 | 5.0 | 0.00 | 0.00 | 0.00 | 78 | 1006.2 |
| 20260502231029 | 45 | 0 | 0.0 | 5.0 | 0.00 | 0.00 | 0.00 | 78 | 1006.0 |
| 20260502230534 | 45 | 280 | 1.0 | 5.0 | 0.00 | 0.00 | 0.00 | 78 | 1006.0 |
| 20260502230041 | 45 | 331 | 1.0 | 5.0 | 0.00 | 0.00 | 0.00 | 78 | 1006.1 |
| 20260502225537 | 45 | 347 | 1.0 | 6.0 | 0.00 | 0.00 | 0.00 | 79 | 1006.0 |
| 20260502225033 | 45 | 0 | 1.0 | 6.0 | 0.00 | 0.00 | 0.00 | 79 | 1006.1 |
| 20260502224548 | 45 | 328 | 2.0 | 5.0 | 0.00 | 0.00 | 0.00 | 79 | 1006.1 |
| 20260502224033 | 45 | 291 | 1.0 | 6.0 | 0.00 | 0.00 | 0.00 | 79 | 1006.1 |
| 20260502223531 | 45 | 277 | 2.0 | 7.0 | 0.00 | 0.00 | 0.00 | 79 | 1006.0 |
| 20260502223039 | 45 | 0 | 2.0 | 7.0 | 0.00 | 0.00 | 0.00 | 79 | 1006.0 |
| 20260502222531 | 45 | 293 | 3.0 | 7.0 | 0.00 | 0.00 | 0.00 | 80 | 1006.0 |
| 20260502222033 | 45 | 290 | 2.0 | 7.0 | 0.00 | 0.00 | 0.00 | 80 | 1006.0 |
| 20260502221541 | 45 | 289 | 2.0 | 7.0 | 0.00 | 0.00 | 0.00 | 80 | 1006.1 |
| 20260502221030 | 45 | 287 | 3.0 | 7.0 | 0.00 | 0.00 | 0.00 | 80 | 1006.0 |
| 20260502220531 | 45 | 261 | 3.0 | 6.0 | 0.00 | 0.00 | 0.00 | 80 | 1006.1 |
| 20260502220042 | 44 | 278 | 2.0 | 6.0 | 0.00 | 0.00 | 0.00 | 82 | 1006.1 |
| 20260502215534 | 44 | 261 | 2.0 | 6.0 | 0.00 | 0.00 | 0.00 | 83 | 1006.0 |
| 20260502215033 | 44 | 263 | 1.0 | 3.0 | 0.00 | 0.00 | 0.00 | 85 | 1006.2 |
| 20260502214540 | 44 | 268 | 0.0 | 2.0 | 0.00 | 0.00 | 0.00 | 85 | 1006.1 |
| 20260502214035 | 45 | 0 | 0.0 | 0.0 | 0.00 | 0.00 | 0.00 | 85 | 1006.2 |
| 20260502213534 | 45 | 0 | 0.0 | 0.0 | 0.00 | 0.00 | 0.00 | 85 | 1006.0 |
| 20260502213045 | 45 | 0 | 0.0 | 0.0 | 0.00 | 0.00 | 0.00 | 86 | 1006.0 |
| 20260502212531 | 45 | 0 | 0.0 | 3.0 | 0.00 | 0.00 | 0.00 | 85 | 1006.1 |
| 20260502212034 | 45 | 0 | 0.0 | 4.0 | 0.00 | 0.00 | 0.00 | 85 | 1006.1 |
| 20260502211538 | 45 | 270 | 2.0 | 4.0 | 0.00 | 0.00 | 0.00 | 85 | 1006.1 |
| 20260502211030 | 46 | 291 | 0.0 | 3.0 | 0.00 | 0.00 | 0.00 | 84 | 1006.1 |
| 20260502210530 | 46 | 274 | 1.0 | 3.0 | 0.00 | 0.00 | 0.00 | 84 | 1006.1 |
| 20260502210044 | 45 | 293 | 1.0 | 3.0 | 0.00 | 0.00 | 0.00 | 85 | 1006.2 |
| 20260502205530 | 45 | 266 | 1.0 | 3.0 | 0.00 | 0.00 | 0.00 | 85 | 1006.1 |
| 20260502205034 | 46 | 247 | 2.0 | 4.0 | 0.00 | 0.00 | 0.00 | 84 | 1006.2 |
| 20260502204542 | 46 | 261 | 1.0 | 4.0 | 0.00 | 0.00 | 0.00 | 84 | 1006.2 |
| 20260502204034 | 46 | 274 | 2.0 | 4.0 | 0.00 | 0.00 | 0.00 | 84 | 1006.1 |
| 20260502203534 | 46 | 278 | 2.0 | 4.0 | 0.00 | 0.00 | 0.00 | 84 | 1006.3 |
| 20260502203046 | 46 | 284 | 1.0 | 3.0 | 0.00 | 0.00 | 0.00 | 85 | 1006.2 |
| 20260502202530 | 46 | 0 | 1.0 | 3.0 | 0.00 | 0.00 | 0.00 | 84 | 1006.1 |
| 20260502202030 | 46 | 269 | 0.0 | 4.0 | 0.00 | 0.00 | 0.00 | 83 | 1006.0 |
| 20260502201540 | 46 | 284 | 1.0 | 4.0 | 0.00 | 0.00 | 0.00 | 83 | 1005.9 |
| 20260502201033 | 46 | 262 | 2.0 | 4.0 | 0.00 | 0.00 | 0.00 | 83 | 1006.1 |
| 20260502200530 | 46 | 260 | 0.0 | 3.0 | 0.00 | 0.00 | 0.00 | 84 | 1006.1 |
| 20260502200038 | 46 | 0 | 0.0 | 3.0 | 0.00 | 0.00 | 0.00 | 84 | 1005.9 |
| 20260502195529 | 46 | 258 | 0.0 | 3.0 | 0.00 | 0.00 | 0.00 | 84 | 1006.0 |
| 20260502195033 | 46 | 258 | 1.0 | 3.0 | 0.00 | 0.00 | 0.00 | 85 | 1006.0 |
| 20260502194542 | 46 | 159 | 0.0 | 0.0 | 0.00 | 0.00 | 0.00 | 86 | 1006.0 |
| 20260502194033 | 46 | 0 | 0.0 | 0.0 | 0.00 | 0.00 | 0.00 | 86 | 1005.9 |
| 20260502193532 | 46 | 0 | 0.0 | 2.0 | 0.00 | 0.00 | 0.00 | 86 | 1005.8 |
| 20260502193056 | 46 | 0 | 0.0 | 2.0 | 0.00 | 0.00 | 0.00 | 86 | 1006.0 |
| 20260502192536 | 46 | 0 | 0.0 | 0.0 | 0.00 | 0.00 | 0.00 | 85 | 1006.0 |
| 20260502192034 | 46 | 0 | 0.0 | 0.0 | 0.00 | 0.00 | 0.00 | 85 | 1006.0 |
| 20260502191542 | 46 | 0 | 0.0 | 0.0 | 0.00 | 0.00 | 0.00 | 85 | 1006.0 |
| 20260502191029 | 46 | 0 | 0.0 | 0.0 | 0.00 | 0.00 | 0.00 | 86 | 1005.9 |
| 20260502190533 | 47 | 0 | 0.0 | 0.0 | 0.00 | 0.00 | 0.00 | 84 | 1005.9 |
| 20260502190044 | 47 | 0 | 0.0 | 0.0 | 0.00 | 0.00 | 0.00 | 83 | 1005.9 |
| 20260502185534 | 47 | 0 | 0.0 | 0.0 | 0.00 | 0.00 | 0.00 | 83 | 1005.8 |
| 20260502185034 | 47 | 0 | 0.0 | 0.0 | 0.00 | 0.00 | 0.00 | 82 | 1005.7 |